^^
Saratoga-Weather Station Historical Data
Daily Summary for August 15, 2021 Units:  English    Metric   Both
Daily Weekly Monthly Yearly Custom
  High: Low: Average:
Temperature: 48.4 °F 43.3 °F 46.4 °F
Dew Point: 45.3 °F 41.5 °F 43 °F
Humidity: 93% 85% 88%
Wind Speed: 8.1mph 0mph 1.8mph
Wind Gust: 11mph - -
Wind- - East
Pressure: 30.2 in 30.2 in -
Precipitation: 0 in    
Historical Graphs
 
 
Tabular Data for August 15, 2021
Time Temperature Dew Point Pressure Wind Wind Speed Wind Gust Humidity Rainfall Rate (Hourly) solar
00:04 48 °F 45.1 °F 30.2 in East 0.9 mph 6 mph 90% 0 in 0 W/m2
00:09 48 °F 45.1 °F 30.2 in West 2 mph 4 mph 90% 0 in 0 W/m2
00:14 48 °F 45.1 °F 30.2 in NNE 2 mph 6 mph 90% 0 in 0 W/m2
00:19 48 °F 45.1 °F 30.2 in NE 0.9 mph 4 mph 90% 0 in 0 W/m2
00:24 48 °F 45.1 °F 30.2 in ESE 0.9 mph 6 mph 90% 0 in 0 W/m2
00:29 48 °F 45.1 °F 30.2 in East 0.9 mph 4 mph 90% 0 in 0 W/m2
00:34 48 °F 45.1 °F 30.2 in Calm   5 mph 90% 0 in 0 W/m2
00:39 48 °F 45.1 °F 30.2 in ENE 2.9 mph 6 mph 90% 0 in 0 W/m2
00:44 48.2 °F 45.3 °F 30.2 in North 2 mph 6 mph 90% 0 in 0 W/m2
00:49 48.2 °F 45.3 °F 30.2 in ESE 6 mph 7 mph 90% 0 in 0 W/m2
00:54 48.2 °F 45.3 °F 30.2 in ENE 4.9 mph 5 mph 90% 0 in 0 W/m2
00:59 48 °F 45.1 °F 30.2 in East 0.9 mph 9 mph 90% 0 in 0 W/m2
01:04 48 °F 45.1 °F 30.2 in Calm   3 mph 90% 0 in 0 W/m2
01:09 48 °F 45.1 °F 30.2 in ESE 2 mph 6 mph 90% 0 in 0 W/m2
01:14 48 °F 45.1 °F 30.2 in ENE 2 mph 3 mph 90% 0 in 0 W/m2
01:19 48 °F 45.1 °F 30.2 in SE 0.9 mph 3 mph 90% 0 in 0 W/m2
01:24 48 °F 45.1 °F 30.2 in ESE 0.9 mph 2 mph 90% 0 in 0 W/m2
01:29 48 °F 45.1 °F 30.2 in ESE 2 mph 2 mph 90% 0 in 0 W/m2
01:34 48 °F 45.1 °F 30.2 in NE 0.9 mph 3 mph 90% 0 in 0 W/m2
01:39 48 °F 45.1 °F 30.2 in East 2 mph 2 mph 90% 0 in 0 W/m2
01:44 48 °F 45.1 °F 30.2 in ESE 0.9 mph 3 mph 90% 0 in 0 W/m2
01:49 48 °F 45.1 °F 30.2 in NNE 0.9 mph 2 mph 90% 0 in 0 W/m2
01:54 48 °F 45.1 °F 30.2 in ENE 0.9 mph 2 mph 90% 0 in 0 W/m2
01:59 48 °F 45.1 °F 30.2 in East 2 mph 2 mph 90% 0 in 0 W/m2
02:04 48 °F 45.1 °F 30.2 in Calm     90% 0 in 0 W/m2
02:09 48 °F 45.1 °F 30.2 in ESE 2 mph 7 mph 90% 0 in 0 W/m2
02:14 48 °F 45 °F 30.2 in East 2 mph 4 mph 89% 0 in 0 W/m2
02:19 48 °F 45 °F 30.2 in SE 2.9 mph 5 mph 89% 0 in 0 W/m2
02:24 48.2 °F 44.8 °F 30.2 in Calm   6 mph 88% 0 in 0 W/m2
02:29 48.2 °F 44.8 °F 30.2 in East 2.9 mph 6 mph 88% 0 in 0 W/m2
02:34 48.2 °F 44.8 °F 30.2 in ENE 4.9 mph 6 mph 88% 0 in 0 W/m2
02:39 48.2 °F 44.6 °F 30.2 in East 2 mph 9 mph 87% 0 in 0 W/m2
02:44 48.2 °F 44.6 °F 30.2 in ESE 2.9 mph 9 mph 87% 0 in 0 W/m2
02:50 48.2 °F 44.6 °F 30.2 in ESE 2.9 mph 5 mph 87% 0 in 0 W/m2
02:55 48.2 °F 44.6 °F 30.2 in East 2.9 mph 8 mph 87% 0 in 0 W/m2
03:00 48.4 °F 44.4 °F 30.2 in East 8.1 mph 8 mph 86% 0 in 0 W/m2
03:05 48.4 °F 44.4 °F 30.2 in SSE 4 mph 8 mph 86% 0 in 0 W/m2
03:10 48.2 °F 44.2 °F 30.2 in East 2.9 mph 8 mph 86% 0 in 0 W/m2
03:15 48.2 °F 44.2 °F 30.2 in East 2.9 mph 4 mph 86% 0 in 0 W/m2
03:20 48.2 °F 44.2 °F 30.2 in East 0.9 mph 6 mph 86% 0 in 0 W/m2
03:25 48 °F 44.1 °F 30.2 in ESE 2 mph 10 mph 86% 0 in 0 W/m2
03:30 48 °F 43.7 °F 30.2 in ENE 4.9 mph 9 mph 85% 0 in 0 W/m2
03:35 48 °F 43.7 °F 30.2 in Calm   6 mph 85% 0 in 0 W/m2
03:40 48 °F 44.1 °F 30.2 in East 4 mph 4 mph 86% 0 in 0 W/m2
03:45 48 °F 44.1 °F 30.2 in ESE 2.9 mph 11 mph 86% 0 in 0 W/m2
03:50 47.8 °F 43.5 °F 30.2 in SE 8.1 mph 10 mph 85% 0 in 0 W/m2
03:55 47.8 °F 43.5 °F 30.2 in East 2.9 mph 8 mph 85% 0 in 0 W/m2
04:00 47.8 °F 43.5 °F 30.2 in East 2.9 mph 6 mph 85% 0 in 0 W/m2
04:05 47.8 °F 43.9 °F 30.2 in East 2.9 mph 4 mph 86% 0 in 0 W/m2
04:10 47.7 °F 43.7 °F 30.2 in ENE 2 mph 5 mph 86% 0 in 0 W/m2
04:15 47.7 °F 43.7 °F 30.2 in East 8.1 mph 9 mph 86% 0 in 0 W/m2
04:20 47.7 °F 43.7 °F 30.2 in East 2 mph 6 mph 86% 0 in 0 W/m2
04:25 47.7 °F 43.7 °F 30.2 in ENE 0.9 mph 9 mph 86% 0 in 0 W/m2
04:30 47.5 °F 43.5 °F 30.2 in NE 2 mph 10 mph 86% 0 in 0 W/m2
04:35 47.5 °F 43.5 °F 30.2 in SE 4 mph 8 mph 86% 0 in 0 W/m2
04:40 47.5 °F 43.2 °F 30.2 in East 2.9 mph 8 mph 85% 0 in 0 W/m2
04:45 47.5 °F 43.2 °F 30.2 in SE 4 mph 5 mph 85% 0 in 0 W/m2
04:50 47.5 °F 43.2 °F 30.2 in East 2 mph 6 mph 85% 0 in 0 W/m2
04:55 47.5 °F 43.2 °F 30.2 in ESE 4 mph 7 mph 85% 0 in 0 W/m2
05:00 47.3 °F 43 °F 30.2 in Calm   4 mph 85% 0 in 0 W/m2
05:05 47.3 °F 43.3 °F 30.2 in ENE 4 mph 10 mph 86% 0 in 0 W/m2
05:10 47.1 °F 43.2 °F 30.2 in East 4 mph 4 mph 86% 0 in 0 W/m2
05:15 47.1 °F 43.2 °F 30.2 in East 2 mph 10 mph 86% 0 in 0 W/m2
05:20 47.1 °F 43.2 °F 30.2 in ESE 2 mph 4 mph 86% 0 in 0 W/m2
05:25 47.1 °F 43.2 °F 30.2 in East 2 mph 10 mph 86% 0 in 0 W/m2
05:30 46.9 °F 43 °F 30.2 in Calm   4 mph 86% 0 in 0 W/m2
05:35 46.9 °F 43 °F 30.2 in NE 6.9 mph 10 mph 86% 0 in 0 W/m2
05:40 46.9 °F 43 °F 30.2 in ENE 0.9 mph 6 mph 86% 0 in 0 W/m2
05:45 46.9 °F 43 °F 30.2 in ENE 4 mph 9 mph 86% 0 in 0 W/m2
05:50 46.9 °F 42.6 °F 30.2 in ESE 2.9 mph 6 mph 85% 0 in 0 W/m2
05:55 46.9 °F 42.6 °F 30.2 in ESE 4 mph 6 mph 85% 0 in 0 W/m2
06:00 46.9 °F 42.6 °F 30.2 in East 6 mph 9 mph 85% 0 in 0 W/m2
06:05 46.9 °F 42.6 °F 30.2 in ENE 2.9 mph 8 mph 85% 0 in 0 W/m2
06:10 46.9 °F 42.6 °F 30.2 in ESE 2.9 mph 7 mph 85% 0 in 0 W/m2
06:15 46.9 °F 42.6 °F 30.2 in NE 4 mph 10 mph 85% 0 in 0 W/m2
06:20 46.8 °F 42.4 °F 30.2 in NE 6 mph 10 mph 85% 0 in 0 W/m2
06:25 46.8 °F 42.4 °F 30.2 in East 6.9 mph 9 mph 85% 0 in 0 W/m2
06:30 46.8 °F 42.4 °F 30.2 in SE 4.9 mph 10 mph 85% 0 in 0 W/m2
06:35 46.8 °F 42.4 °F 30.2 in East 0.9 mph 3 mph 85% 0 in 0 W/m2
06:40 46.8 °F 42.4 °F 30.2 in ENE 4 mph 7 mph 85% 0 in 0 W/m2
06:45 46.8 °F 42.4 °F 30.2 in NE 2.9 mph 5 mph 85% 0 in 0 W/m2
06:50 46.8 °F 42.4 °F 30.2 in ESE 6 mph 6 mph 85% 0 in 0 W/m2
06:55 46.6 °F 42.3 °F 30.2 in WNW 2 mph 8 mph 85% 0 in 0 W/m2
07:00 46.6 °F 42.3 °F 30.2 in ESE 0.9 mph 3 mph 85% 0 in 0 W/m2
07:05 46.6 °F 42.6 °F 30.2 in ENE 4 mph 4 mph 86% 0 in 0 W/m2
07:10 46.6 °F 42.6 °F 30.2 in NE 0.9 mph 3 mph 86% 0 in 0 W/m2
07:15 46.6 °F 42.6 °F 30.2 in East 0.9 mph 11 mph 86% 0 in 0 W/m2
07:20 46.6 °F 42.6 °F 30.2 in SSE 0.9 mph 5 mph 86% 0 in 0 W/m2
07:25 46.6 °F 42.6 °F 30.2 in ENE 2 mph 11 mph 86% 0 in 0 W/m2
07:30 46.6 °F 42.6 °F 30.2 in ENE 2 mph 4 mph 86% 0 in 0 W/m2
07:35 46.6 °F 42.6 °F 30.2 in East 0.9 mph 8 mph 86% 0 in 0 W/m2
07:40 46.6 °F 42.6 °F 30.2 in ENE 4 mph 6 mph 86% 0 in 0 W/m2
07:45 46.6 °F 42.6 °F 30.2 in ENE 0.9 mph 5 mph 86% 0 in 0 W/m2
07:50 46.6 °F 42.6 °F 30.2 in ENE 0.9 mph 6 mph 86% 0 in 0 W/m2
07:55 46.4 °F 42.4 °F 30.2 in Calm   2 mph 86% 0 in 0 W/m2
08:00 46.4 °F 42.8 °F 30.2 in NNE 2 mph 7 mph 87% 0 in 0 W/m2
08:05 46.4 °F 42.8 °F 30.2 in East 2 mph 5 mph 87% 0 in 0 W/m2
08:10 46.4 °F 42.8 °F 30.2 in Calm   6 mph 87% 0 in 0 W/m2
08:15 46.4 °F 42.8 °F 30.2 in Calm   4 mph 87% 0 in 0 W/m2
08:20 46.2 °F 42.6 °F 30.2 in Calm   3 mph 87% 0 in 5 W/m2
08:25 46.4 °F 42.8 °F 30.2 in Calm   2 mph 87% 0 in 7 W/m2
08:30 46.2 °F 42.6 °F 30.2 in ENE 0.9 mph 4 mph 87% 0 in 5 W/m2
08:35 46.2 °F 42.6 °F 30.2 in NNE 2 mph 3 mph 87% 0 in 7 W/m2
08:40 46.2 °F 42.6 °F 30.2 in ENE 0.9 mph 4 mph 87% 0 in 7 W/m2
08:45 46.2 °F 42.6 °F 30.2 in East 0.9 mph 3 mph 87% 0 in 9 W/m2
08:50 46.2 °F 42.8 °F 30.2 in ENE 0.9 mph 2 mph 88% 0 in 11 W/m2
08:55 46.2 °F 42.8 °F 30.2 in East 0.9 mph 3 mph 88% 0 in 11 W/m2
09:00 46.2 °F 42.8 °F 30.2 in ESE 0.9 mph 3 mph 88% 0 in 11 W/m2
09:05 46.2 °F 42.8 °F 30.2 in SE 0.9 mph 3 mph 88% 0 in 11 W/m2
09:10 46.2 °F 42.8 °F 30.2 in East 2 mph 4 mph 88% 0 in 11 W/m2
09:15 46.2 °F 42.8 °F 30.2 in East 0.9 mph 2 mph 88% 0 in 12 W/m2
09:20 46.2 °F 42.8 °F 30.2 in ESE 0.9 mph 4 mph 88% 0 in 14 W/m2
09:25 46.2 °F 42.8 °F 30.2 in ENE 0.9 mph 3 mph 88% 0 in 14 W/m2
09:30 46.2 °F 42.8 °F 30.2 in ENE 2 mph 3 mph 88% 0 in 19 W/m2
09:35 46.2 °F 42.8 °F 30.2 in East 2 mph 2 mph 88% 0 in 19 W/m2
09:40 46.2 °F 42.8 °F 30.2 in NE 2 mph 4 mph 88% 0 in 19 W/m2
09:45 46.2 °F 42.8 °F 30.2 in East 0.9 mph 4 mph 88% 0 in 19 W/m2
09:50 46.2 °F 42.8 °F 30.2 in ENE 2 mph 3 mph 88% 0 in 19 W/m2
09:55 46.2 °F 42.8 °F 30.2 in WNW 0.9 mph 6 mph 88% 0 in 23 W/m2
10:01 46.2 °F 42.6 °F 30.2 in ENE 6.9 mph 7 mph 87% 0 in 25 W/m2
10:06 46.4 °F 42.8 °F 30.2 in ENE 2.9 mph 4 mph 87% 0 in 23 W/m2
10:11 46.4 °F 42.8 °F 30.2 in East 2 mph 2 mph 87% 0 in 25 W/m2
10:16 46.6 °F 43 °F 30.2 in ENE 2.9 mph 4 mph 87% 0 in 25 W/m2
10:21 46.4 °F 42.8 °F 30.2 in NE 4 mph 5 mph 87% 0 in 26 W/m2
10:26 46.6 °F 43 °F 30.2 in ESE 2.9 mph 9 mph 87% 0 in 28 W/m2
10:31 46.6 °F 43 °F 30.2 in NE 2 mph 5 mph 87% 0 in 26 W/m2
10:36 46.6 °F 43 °F 30.2 in Calm   8 mph 87% 0 in 28 W/m2
10:41 46.6 °F 43 °F 30.2 in SE 0.9 mph 3 mph 87% 0 in 28 W/m2
10:46 46.6 °F 43 °F 30.2 in NE 0.9 mph 3 mph 87% 0 in 32 W/m2
10:51 46.6 °F 43 °F 30.2 in NE 2 mph 5 mph 87% 0 in 37 W/m2
10:56 46.6 °F 43 °F 30.2 in East 2 mph 7 mph 87% 0 in 33 W/m2
11:01 46.8 °F 43.2 °F 30.2 in Calm   3 mph 87% 0 in 33 W/m2
11:06 46.8 °F 43.2 °F 30.2 in Calm   7 mph 87% 0 in 33 W/m2
11:11 46.8 °F 43.2 °F 30.2 in NE 4 mph 4 mph 87% 0 in 35 W/m2
11:16 46.8 °F 43.2 °F 30.2 in NE 0.9 mph 3 mph 87% 0 in 40 W/m2
11:21 46.8 °F 43.2 °F 30.2 in SE 2 mph 6 mph 87% 0 in 44 W/m2
11:26 46.8 °F 43.2 °F 30.2 in Calm   2 mph 87% 0 in 39 W/m2
11:31 46.8 °F 43.2 °F 30.2 in ENE 0.9 mph 5 mph 87% 0 in 44 W/m2
11:36 46.8 °F 42.8 °F 30.2 in ENE 2 mph 7 mph 86% 0 in 42 W/m2
11:41 46.9 °F 43 °F 30.2 in NNE 2.9 mph 3 mph 86% 0 in 40 W/m2
11:46 46.8 °F 42.8 °F 30.2 in Calm   3 mph 86% 0 in 37 W/m2
11:51 46.9 °F 43 °F 30.2 in ENE 4.9 mph 5 mph 86% 0 in 33 W/m2
11:56 46.9 °F 43 °F 30.2 in East 2 mph 8 mph 86% 0 in 37 W/m2
12:01 46.9 °F 43 °F 30.2 in East 2 mph 4 mph 86% 0 in 35 W/m2
12:06 46.9 °F 43 °F 30.2 in NE 0.9 mph 3 mph 86% 0 in 35 W/m2
12:11 46.9 °F 43 °F 30.2 in East 2.9 mph 3 mph 86% 0 in 40 W/m2
12:16 46.9 °F 43 °F 30.2 in ENE 2.9 mph 7 mph 86% 0 in 44 W/m2
12:21 46.9 °F 43 °F 30.2 in East 2.9 mph 5 mph 86% 0 in 40 W/m2
12:26 46.9 °F 43 °F 30.2 in ENE 2 mph 9 mph 86% 0 in 37 W/m2
12:31 46.9 °F 43 °F 30.2 in ENE 0.9 mph 3 mph 86% 0 in 39 W/m2
12:36 46.9 °F 43 °F 30.2 in Calm   9 mph 86% 0 in 40 W/m2
12:41 46.9 °F 43 °F 30.2 in ENE 4 mph 6 mph 86% 0 in 39 W/m2
12:46 46.9 °F 43 °F 30.2 in Calm   6 mph 86% 0 in 35 W/m2
12:51 46.9 °F 43 °F 30.2 in NE 0.9 mph 4 mph 86% 0 in 28 W/m2
12:56 46.9 °F 43.3 °F 30.2 in ESE 2 mph 2 mph 87% 0 in 26 W/m2
13:01 46.9 °F 43.3 °F 30.2 in East 2.9 mph 3 mph 87% 0 in 25 W/m2
13:06 46.9 °F 43.3 °F 30.2 in ENE 2.9 mph 4 mph 87% 0 in 26 W/m2
13:11 46.9 °F 43.3 °F 30.2 in East 2 mph 3 mph 87% 0 in 30 W/m2
13:16 46.9 °F 43.3 °F 30.2 in East 2.9 mph 6 mph 87% 0 in 28 W/m2
13:21 46.9 °F 43.3 °F 30.2 in SE 0.9 mph 3 mph 87% 0 in 26 W/m2
13:26 46.9 °F 43.3 °F 30.2 in ENE 2 mph 6 mph 87% 0 in 30 W/m2
13:31 46.9 °F 43.3 °F 30.2 in East 2 mph 2 mph 87% 0 in 35 W/m2
13:36 46.9 °F 43.3 °F 30.2 in NNE 2 mph 6 mph 87% 0 in 30 W/m2
13:41 46.9 °F 43.3 °F 30.2 in ENE 2 mph 3 mph 87% 0 in 28 W/m2
13:46 46.9 °F 43.3 °F 30.2 in NE 6 mph 10 mph 87% 0 in 30 W/m2
13:51 46.9 °F 43.3 °F 30.2 in East 2 mph 5 mph 87% 0 in 33 W/m2
13:56 46.8 °F 43.2 °F 30.2 in ESE 2 mph 10 mph 87% 0 in 30 W/m2
14:01 46.9 °F 43.3 °F 30.2 in ESE 2.9 mph 5 mph 87% 0 in 30 W/m2
14:06 46.9 °F 43.3 °F 30.2 in ENE 0.9 mph 3 mph 87% 0 in 28 W/m2
14:11 46.9 °F 43.3 °F 30.2 in East 2 mph 8 mph 87% 0 in 26 W/m2
14:16 46.9 °F 43.3 °F 30.2 in Calm   2 mph 87% 0 in 28 W/m2
14:21 46.9 °F 43.3 °F 30.2 in Calm   2 mph 87% 0 in 26 W/m2
14:26 46.9 °F 43.3 °F 30.2 in ENE 0.9 mph 6 mph 87% 0 in 32 W/m2
14:31 46.9 °F 43.3 °F 30.2 in NNE 0.9 mph 6 mph 87% 0 in 25 W/m2
14:36 46.8 °F 43.2 °F 30.2 in North 0.9 mph 5 mph 87% 0 in 25 W/m2
14:41 46.8 °F 43.2 °F 30.2 in NE 2 mph 7 mph 87% 0 in 25 W/m2
14:46 46.8 °F 43.2 °F 30.2 in NNE 2 mph 4 mph 87% 0 in 25 W/m2
14:51 46.8 °F 43.2 °F 30.2 in ESE 4 mph 4 mph 87% 0 in 21 W/m2
14:56 46.8 °F 43.2 °F 30.2 in ENE 2.9 mph 4 mph 87% 0 in 19 W/m2
15:01 46.8 °F 43.2 °F 30.2 in East 6 mph 6 mph 87% 0 in 19 W/m2
15:06 46.8 °F 43.2 °F 30.2 in ESE 0.9 mph 4 mph 87% 0 in 16 W/m2
15:11 46.8 °F 43.2 °F 30.2 in Calm   1 mph 87% 0 in 14 W/m2
15:16 46.8 °F 43.2 °F 30.2 in ENE 2 mph 6 mph 87% 0 in 14 W/m2
15:22 46.8 °F 43.2 °F 30.2 in East 2 mph 7 mph 87% 0 in 14 W/m2
15:27 46.8 °F 43.2 °F 30.2 in East 0.9 mph 4 mph 87% 0 in 12 W/m2
15:32 46.8 °F 43.2 °F 30.2 in ENE 2 mph 6 mph 87% 0 in 12 W/m2
15:37 46.6 °F 43 °F 30.2 in ESE 2 mph 5 mph 87% 0 in 9 W/m2
15:42 46.6 °F 43 °F 30.2 in NE 2.9 mph 5 mph 87% 0 in 7 W/m2
15:47 46.6 °F 43.2 °F 30.2 in ENE 0.9 mph 4 mph 88% 0 in 7 W/m2
15:52 46.6 °F 43.2 °F 30.2 in ENE 0.9 mph 2 mph 88% 0 in 7 W/m2
15:57 46.6 °F 43.2 °F 30.2 in ENE 0.9 mph 3 mph 88% 0 in 7 W/m2
16:02 46.4 °F 43 °F 30.2 in ENE 0.9 mph 3 mph 88% 0 in 5 W/m2
16:07 46.4 °F 43 °F 30.2 in East 2 mph 6 mph 88% 0 in 5 W/m2
16:12 46.4 °F 43 °F 30.2 in East 2 mph 4 mph 88% 0 in 5 W/m2
16:17 46.2 °F 42.8 °F 30.2 in East 2 mph 6 mph 88% 0 in 0 W/m2
16:22 46.2 °F 42.8 °F 30.2 in ENE 0.9 mph 4 mph 88% 0 in 0 W/m2
16:27 46.2 °F 42.8 °F 30.2 in NE 2.9 mph 3 mph 88% 0 in 0 W/m2
16:32 46.2 °F 42.8 °F 30.2 in NE 0.9 mph 4 mph 88% 0 in 0 W/m2
16:37 46.2 °F 42.8 °F 30.2 in East 2.9 mph 4 mph 88% 0 in 0 W/m2
16:42 46 °F 43 °F 30.2 in ENE 0.9 mph 4 mph 89% 0 in 0 W/m2
16:47 46 °F 43 °F 30.2 in Calm   3 mph 89% 0 in 0 W/m2
16:52 46 °F 43 °F 30.2 in East 2.9 mph 6 mph 89% 0 in 0 W/m2
16:57 45.9 °F 42.8 °F 30.2 in ENE 0.9 mph 2 mph 89% 0 in 0 W/m2
17:02 45.9 °F 42.8 °F 30.2 in East 2 mph 3 mph 89% 0 in 0 W/m2
17:07 45.9 °F 42.8 °F 30.2 in East 2.9 mph 3 mph 89% 0 in 0 W/m2
17:12 45.9 °F 43.2 °F 30.2 in East 2 mph 4 mph 90% 0 in 0 W/m2
17:17 45.7 °F 43 °F 30.2 in NE 0.9 mph 3 mph 90% 0 in 0 W/m2
17:22 45.7 °F 43 °F 30.2 in East 0.9 mph 3 mph 90% 0 in 0 W/m2
17:27 45.7 °F 43 °F 30.2 in ENE 2 mph 4 mph 90% 0 in 0 W/m2
17:32 45.5 °F 42.8 °F 30.2 in East 2.9 mph 4 mph 90% 0 in 0 W/m2
17:37 45.3 °F 42.6 °F 30.2 in NE 2.9 mph 8 mph 90% 0 in 0 W/m2
17:42 45.3 °F 42.8 °F 30.2 in SE 2 mph 2 mph 91% 0 in 0 W/m2
17:47 45.3 °F 42.8 °F 30.2 in NE 2.9 mph 8 mph 91% 0 in 0 W/m2
17:52 45.1 °F 42.6 °F 30.2 in NE 0.9 mph 4 mph 91% 0 in 0 W/m2
17:57 45.1 °F 42.6 °F 30.2 in ENE 2 mph 3 mph 91% 0 in 0 W/m2
18:09 45.1 °F 42.6 °F 30.2 in NE 2.9 mph 5 mph 91% 0 in 0 W/m2
18:17 45.1 °F 42.6 °F 30.2 in ENE 0.9 mph 4 mph 91% 0 in 0 W/m2
18:22 45.1 °F 42.6 °F 30.2 in NE 7 mph 7 mph 91% 0 in 0 W/m2
18:27 45 °F 42.4 °F 30.2 in ENE 0.9 mph 3 mph 91% 0 in 0 W/m2
18:32 45 °F 42.4 °F 30.2 in NE 0.9 mph 5 mph 91% 0 in 0 W/m2
18:37 45 °F 42.4 °F 30.2 in East 2 mph 3 mph 91% 0 in 0 W/m2
18:42 45 °F 42.4 °F 30.2 in ESE 2 mph 2 mph 91% 0 in 0 W/m2
18:47 45 °F 42.4 °F 30.2 in NE 2 mph 4 mph 91% 0 in 0 W/m2
18:52 45 °F 42.3 °F 30.2 in East 2 mph 3 mph 90% 0 in 0 W/m2
18:57 45 °F 42.3 °F 30.2 in East 0.9 mph 2 mph 90% 0 in 0 W/m2
19:02 45 °F 42.3 °F 30.2 in ENE 2.9 mph 3 mph 90% 0 in 0 W/m2
19:07 45 °F 42.3 °F 30.2 in ENE 2 mph 3 mph 90% 0 in 0 W/m2
19:12 45 °F 42.3 °F 30.2 in Calm   3 mph 90% 0 in 0 W/m2
19:17 45 °F 42.3 °F 30.2 in ESE 2.9 mph 4 mph 90% 0 in 0 W/m2
19:22 45 °F 42.3 °F 30.2 in Calm   2 mph 90% 0 in 0 W/m2
19:27 45 °F 42.3 °F 30.2 in East 2 mph 3 mph 90% 0 in 0 W/m2
19:32 45 °F 42.3 °F 30.2 in ESE 2.9 mph 4 mph 90% 0 in 0 W/m2
19:37 45 °F 42.3 °F 30.2 in NW 0.9 mph 2 mph 90% 0 in 0 W/m2
19:42 45 °F 42.3 °F 30.2 in Calm     90% 0 in 0 W/m2
19:47 45 °F 42.3 °F 30.2 in SSE 0.9 mph 4 mph 90% 0 in 0 W/m2
19:52 45 °F 42.3 °F 30.2 in NE 0.9 mph 3 mph 90% 0 in 0 W/m2
19:58 45 °F 42.3 °F 30.2 in Calm   1 mph 90% 0 in 0 W/m2
20:03 45 °F 42.3 °F 30.2 in Calm     90% 0 in 0 W/m2
20:08 45 °F 42.3 °F 30.2 in NNE 0.9 mph 2 mph 90% 0 in 0 W/m2
20:13 45 °F 42.3 °F 30.2 in Calm     90% 0 in 0 W/m2
20:18 45 °F 42.3 °F 30.2 in Calm   1 mph 90% 0 in 0 W/m2
20:23 45 °F 42.3 °F 30.2 in Calm     90% 0 in 0 W/m2
20:28 44.8 °F 42.3 °F 30.2 in Calm   2 mph 91% 0 in 0 W/m2
20:33 44.8 °F 42.3 °F 30.2 in North 2 mph 2 mph 91% 0 in 0 W/m2
20:38 44.8 °F 42.3 °F 30.2 in Calm     91% 0 in 0 W/m2
20:43 44.6 °F 42.1 °F 30.2 in Calm   1 mph 91% 0 in 0 W/m2
20:48 44.6 °F 42.1 °F 30.2 in Calm   1 mph 91% 0 in 0 W/m2
20:53 44.4 °F 41.9 °F 30.2 in NE 2.9 mph 3 mph 91% 0 in 0 W/m2
20:58 44.6 °F 42.1 °F 30.2 in Calm     91% 0 in 0 W/m2
21:03 44.4 °F 41.9 °F 30.2 in Calm   1 mph 91% 0 in 0 W/m2
21:08 44.4 °F 42.3 °F 30.2 in Calm   1 mph 92% 0 in 0 W/m2
21:13 44.4 °F 42.3 °F 30.2 in Calm   2 mph 92% 0 in 0 W/m2
21:18 44.4 °F 42.3 °F 30.2 in NNE 0.9 mph 3 mph 92% 0 in 0 W/m2
21:23 44.4 °F 42.3 °F 30.2 in NE 0.9 mph 4 mph 92% 0 in 0 W/m2
21:28 44.4 °F 42.3 °F 30.2 in ENE 0.9 mph 2 mph 92% 0 in 0 W/m2
21:33 44.4 °F 42.3 °F 30.2 in ENE 0.9 mph 2 mph 92% 0 in 0 W/m2
21:38 44.4 °F 42.3 °F 30.2 in ENE 0.9 mph 1 mph 92% 0 in 0 W/m2
21:43 44.4 °F 42.3 °F 30.2 in Calm   1 mph 92% 0 in 0 W/m2
21:48 44.4 °F 42.3 °F 30.2 in ENE 0.9 mph 2 mph 92% 0 in 0 W/m2
21:53 44.2 °F 42.1 °F 30.2 in NE 0.9 mph 2 mph 92% 0 in 0 W/m2
21:58 44.2 °F 42.1 °F 30.2 in Calm   1 mph 92% 0 in 0 W/m2
22:03 44.2 °F 42.1 °F 30.2 in Calm   1 mph 92% 0 in 0 W/m2
22:08 44.1 °F 41.9 °F 30.2 in Calm     92% 0 in 0 W/m2
22:13 44.1 °F 41.9 °F 30.2 in NNE 2 mph 2 mph 92% 0 in 0 W/m2
22:18 44.1 °F 41.9 °F 30.2 in Calm   1 mph 92% 0 in 0 W/m2
22:23 44.1 °F 41.9 °F 30.2 in NNE 0.9 mph 2 mph 92% 0 in 0 W/m2
22:28 44.1 °F 41.9 °F 30.2 in NE 0.9 mph 2 mph 92% 0 in 0 W/m2
22:33 44.1 °F 41.9 °F 30.2 in Calm     92% 0 in 0 W/m2
22:38 44.1 °F 41.9 °F 30.2 in Calm   1 mph 92% 0 in 0 W/m2
22:43 43.9 °F 41.7 °F 30.2 in ESE 0.9 mph 2 mph 92% 0 in 0 W/m2
22:48 43.9 °F 41.7 °F 30.2 in NE 0.9 mph 2 mph 92% 0 in 0 W/m2
22:53 43.9 °F 41.7 °F 30.2 in Calm     92% 0 in 0 W/m2
22:58 43.9 °F 41.7 °F 30.2 in Calm   2 mph 92% 0 in 0 W/m2
23:03 43.9 °F 41.7 °F 30.2 in Calm   3 mph 92% 0 in 0 W/m2
23:08 43.7 °F 41.7 °F 30.2 in Calm   2 mph 93% 0 in 0 W/m2
23:13 43.7 °F 41.7 °F 30.2 in East 2 mph 2 mph 93% 0 in 0 W/m2
23:18 43.7 °F 41.7 °F 30.2 in East 0.9 mph 3 mph 93% 0 in 0 W/m2
23:23 43.5 °F 41.7 °F 30.2 in NE 0.9 mph 5 mph 93% 0 in 0 W/m2
23:28 43.5 °F 41.7 °F 30.2 in Calm   3 mph 93% 0 in 0 W/m2
23:33 43.5 °F 41.7 °F 30.2 in NE 0.9 mph 5 mph 93% 0 in 0 W/m2
23:38 43.5 °F 41.7 °F 30.2 in Calm   4 mph 93% 0 in 0 W/m2
23:43 43.5 °F 41.7 °F 30.2 in Calm   4 mph 93% 0 in 0 W/m2
23:48 43.5 °F 41.7 °F 30.2 in NW 0.9 mph 3 mph 93% 0 in 0 W/m2
23:53 43.5 °F 41.7 °F 30.2 in Calm   2 mph 93% 0 in 0 W/m2
23:58 43.3 °F 41.5 °F 30.2 in Calm   2 mph 93% 0 in 0 W/m2
Juneau County Weather
Compliments of Weather Underground - 4 mb